DW2659 Weather Reports


Display with metric or nautical units.
time (UTC)temp
F
wind
direction
speed
MPH
gust
MPH
rain 1hr
in
rain 24hr
in
rain mn
in
humidity
%
barometer
mb
20260507060404 63 271 0.0 2.0 0.36 1.96 0.57 88 1011.5
20260507055902 63 244 2.0 5.0 0.36 1.96 0.57 88 1011.8
20260507055403 63 204 1.0 2.0 0.36 1.96 0.57 88 1012.4
20260507054904 63 95 1.0 8.0 0.34 1.94 0.55 88 1012.4
20260507054402 63 222 4.0 7.0 0.20 1.78 0.39 88 1011.0
20260507053903 63 250 2.0 5.0 0.20 1.74 0.35 88 1011.0
20260507053404 63 153 2.0 8.0 0.25 1.74 0.35 89 1011.0
20260507052902 63 142 2.0 3.0 0.25 1.74 0.35 89 1011.5
20260507052403 63 176 2.0 5.0 0.25 1.74 0.35 89 1011.5
20260507051904 63 237 4.0 6.0 0.24 1.73 0.34 89 1011.5
20260507051403 63 149 2.0 6.0 0.13 1.62 0.23 89 1011.5
20260507050902 63 260 3.0 6.0 0.12 1.61 0.22 89 1011.5
20260507050404 63 136 1.0 2.0 0.12 1.60 0.21 89 1011.5
20260507045902 63 124 0.0 1.0 0.23 1.60 0.21 89 1012.4
20260507045403 63 124 0.0 1.0 0.28 1.60 0.21 89 1012.4
20260507044403 63 147 0.0 1.0 0.34 1.58 0.19 89 1012.3
20260507043902 63 146 0.0 2.0 0.33 1.54 0.15 89 1012.4
20260507043404 63 251 1.0 2.0 0.29 1.49 0.10 89 1012.4
20260507042903 63 220 0.0 0.0 0.29 1.49 0.10 89 1011.8
20260507042403 63 220 0.0 2.0 0.29 1.49 0.10 89 1011.8
20260507041903 63 220 1.0 1.0 0.29 1.49 0.10 89 1011.8
20260507041403 63 220 0.0 1.0 0.29 1.49 0.10 88 1012.5
20260507040903 64 198 1.0 2.0 0.29 1.49 0.10 88 1012.5
20260507040404 64 267 0.0 2.0 0.28 1.48 0.09 89 1012.5
20260507035903 64 220 1.0 2.0 0.19 1.39 1.39 88 1012.5
20260507035403 63 175 1.0 2.0 0.13 1.33 1.33 89 1012.5
20260507034903 64 256 0.0 2.0 0.12 1.32 1.32 89 1012.5
20260507034404 64 256 0.0 1.0 0.06 1.25 1.25 89 1012.5
20260507033903 64 256 1.0 2.0 0.03 1.22 1.22 89 1012.5
20260507033404 63 126 0.0 1.0 0.01 1.20 1.20 89 1012.5
20260507032403 63 126 0.0 2.0 0.01 1.20 1.20 89 1012.2
20260507031904 64 93 0.0 1.0 0.01 1.20 1.20 89 1012.2
20260507031402 64 93 0.0 1.0 0.01 1.20 1.20 89 1012.6
20260507030903 64 93 3.0 3.0 0.01 1.20 1.20 88 1012.6
20260507030404 64 258 1.0 2.0 0.01 1.20 1.20 88 1012.6
20260507025902 64 240 0.0 1.0 0.01 1.20 1.20 88 1012.6
20260507025403 64 240 1.0 1.0 0.01 1.20 1.20 88 1012.6
20260507024904 64 240 0.0 2.0 0.01 1.20 1.20 88 1012.6
20260507024403 64 220 1.0 2.0 0.00 1.19 1.19 88 1012.6
20260507023903 64 133 1.0 1.0 0.00 1.19 1.19 88 1012.6
20260507023404 64 133 0.0 1.0 0.00 1.19 1.19 88 1012.6
20260507022903 64 133 0.0 0.0 0.00 1.19 1.19 88 1012.6
20260507021904 64 133 0.0 0.0 0.00 1.19 1.19 88 1012.6
20260507021404 64 133 0.0 0.0 0.00 1.19 1.19 88 1012.6
20260507020404 64 133 0.0 1.0 0.00 1.19 1.19 88 1012.6
20260507015903 64 133 0.0 1.0 0.00 1.19 1.19 88 1012.6
20260507015403 64 133 0.0 1.0 0.00 1.19 1.19 88 1012.6
20260507014904 64 133 0.0 0.0 0.00 1.19 1.19 88 1012.6
20260507014402 64 133 0.0 0.0 0.00 1.19 1.19 88 1012.4
20260507013903 64 133 0.0 0.0 0.00 1.19 1.19 88 1012.4
20260507013404 64 133 0.0 2.0 0.00 1.19 1.19 88 1012.1
20260507012903 64 202 1.0 2.0 0.00 1.19 1.19 88 1012.1
20260507012403 64 202 0.0 2.0 0.00 1.19 1.19 88 1012.0
20260507011904 64 247 1.0 2.0 0.01 1.19 1.19 88 1012.0
20260507011403 64 150 0.0 1.0 0.01 1.19 1.19 88 1012.3
20260507010903 64 150 0.0 0.0 0.03 1.19 1.19 88 1012.3
20260507010404 64 150 0.0 1.0 0.11 1.19 1.19 88 1012.3
20260507005403 64 182 0.0 1.0 0.12 1.19 1.19 88 1012.3
20260507004904 64 182 0.0 2.0 0.12 1.19 1.19 88 1012.3
20260507004403 64 200 2.0 3.0 0.12 1.19 1.19 88 1012.0
20260507003404 64 270 0.0 1.0 0.12 1.19 1.19 88 1012.3
20260507002403 64 270 1.0 1.0 0.12 1.19 1.19 88 1012.7
20260507001904 64 207 2.0 5.0 0.11 1.18 1.18 88 1012.7
20260507001402 64 174 1.0 3.0 0.12 1.18 1.18 88 1013.1
20260507000903 65 163 0.0 1.0 0.11 1.16 1.16 88 1013.1
20260507000405 65 192 0.0 1.0 0.04 1.08 1.08 88 1013.1
20260506235902 65 192 0.0 1.0 0.08 1.07 1.07 88 1012.5
20260506235403 65 192 0.0 1.0 0.14 1.07 1.07 88 1012.5
20260506234403 65 192 0.0 1.0 0.16 1.07 1.07 88 1012.1
20260506233903 65 192 0.0 0.0 0.21 1.07 1.07 88 1012.1
20260506233405 65 192 0.0 1.0 0.24 1.07 1.07 88 1012.1
20260506232903 65 192 0.0 0.0 0.25 1.07 1.07 88 1012.1
20260506231904 65 192 0.0 1.0 0.27 1.07 1.07 88 1012.1
20260506231403 65 192 0.0 2.0 0.27 1.06 1.06 88 1012.3
20260506230903 65 192 0.0 2.0 0.27 1.05 1.05 88 1012.3
20260506230404 65 166 2.0 3.0 0.26 1.04 1.04 88 1012.3
20260506225903 65 121 0.0 1.0 0.22 0.99 0.99 88 1011.9
20260506225403 65 161 0.0 1.0 0.16 0.93 0.93 87 1011.9
20260506224905 65 149 0.0 1.0 0.15 0.92 0.92 87 1011.9
20260506224403 65 149 1.0 5.0 0.14 0.91 0.91 87 1010.9
20260506223903 65 273 0.0 1.0 0.09 0.86 0.86 87 1010.9
20260506223404 65 273 1.0 2.0 0.06 0.83 0.83 87 1010.9
20260506222904 65 328 0.0 2.0 0.05 0.82 0.82 87 1010.9
20260506222403 65 303 1.0 2.0 0.04 0.81 0.81 87 1011.5
20260506221403 65 260 1.0 1.0 0.02 0.79 0.79 87 1011.5
20260506220903 65 260 0.0 2.0 0.01 0.78 0.78 87 1011.6
20260506220404 65 246 1.0 3.0 0.01 0.78 0.78 87 1011.6
20260506215903 65 241 0.0 0.0 0.00 0.77 0.77 86 1011.1
20260506215403 66 241 0.0 0.0 0.00 0.77 0.77 86 1011.1
20260506214904 66 241 0.0 0.0 0.00 0.77 0.77 86 1011.1
20260506214403 66 241 0.0 0.0 0.00 0.77 0.77 87 1011.1
20260506213903 66 241 0.0 2.0 0.01 0.77 0.77 86 1011.1
20260506212903 66 241 0.0 1.0 0.05 0.77 0.77 86 1011.6
20260506212403 66 241 0.0 0.0 0.07 0.77 0.77 87 1011.6
20260506211905 66 241 0.0 0.0 0.07 0.77 0.77 87 1011.6
20260506211403 66 241 0.0 1.0 0.07 0.77 0.77 86 1011.5
20260506210903 65 241 1.0 2.0 0.09 0.77 0.77 86 1011.5
20260506210405 65 208 1.0 2.0 0.10 0.77 0.77 86 1011.5
20260506205903 65 195 0.0 5.0 0.11 0.77 0.77 86 1011.9
20260506205403 65 240 2.0 6.0 0.11 0.77 0.77 85 1011.9
20260506204904 65 200 3.0 7.0 0.11 0.77 0.77 85 1011.9
20260506204403 65 122 3.0 6.0 0.15 0.77 0.77 85 1012.1
20260506203903 65 148 2.0 5.0 0.16 0.76 0.76 85 1012.1
20260506203404 65 165 2.0 6.0 0.24 0.75 0.75 85 1012.1
20260506202904 65 259 2.0 3.0 0.51 0.72 0.72 85 1012.2
20260506202404 65 191 2.0 3.0 0.53 0.70 0.70 84 1012.2
20260506201904 65 213 2.0 8.0 0.53 0.70 0.70 85 1012.2
20260506201403 65 189 3.0 7.0 0.53 0.70 0.70 85 1012.5
20260506200904 66 240 2.0 7.0 0.51 0.68 0.68 85 1012.5
20260506200405 66 186 3.0 7.0 0.50 0.67 0.67 85 1012.2
20260506195903 66 218 4.0 8.0 0.49 0.66 0.66 85 1012.2
20260506195403 66 266 4.0 8.0 0.49 0.66 0.66 85 1012.2
20260506194904 66 192 2.0 3.0 0.49 0.66 0.66 85 1012.2
20260506194403 66 147 3.0 6.0 0.45 0.62 0.62 85 1012.7
20260506193903 66 256 3.0 5.0 0.43 0.60 0.60 84 1013.5
20260506192903 67 290 3.0 12.0 0.04 0.21 0.21 82 1012.3
20260506192403 69 11 1.0 3.0 0.00 0.17 0.17 84 1012.3
20260506191903 69 321 0.0 2.0 0.00 0.17 0.17 85 1012.3
20260506190903 69 198 0.0 1.0 0.00 0.17 0.17 85 1012.6
20260506190403 69 198 0.0 0.0 0.00 0.17 0.17 85 1012.6
20260506185904 70 198 0.0 0.0 0.00 0.17 0.17 85 1012.6
20260506185403 70 198 0.0 0.0 0.00 0.17 0.17 84 1012.6
20260506184904 70 198 0.0 1.0 0.00 0.17 0.17 84 1012.6
20260506184404 70 198 0.0 0.0 0.00 0.17 0.17 84 1012.8
20260506183903 70 198 0.0 0.0 0.00 0.17 0.17 83 1012.8
20260506182904 71 198 0.0 1.0 0.00 0.17 0.17 83 1013.0
20260506182403 70 198 0.0 0.0 0.00 0.17 0.17 83 1013.1
20260506181904 70 198 0.0 1.0 0.00 0.17 0.17 82 1013.3
20260506181404 70 164 1.0 2.0 0.00 0.17 0.17 82 1013.3
20260506180904 70 196 0.0 2.0 0.00 0.17 0.17 82 1013.3
20260506180403 70 238 1.0 3.0 0.00 0.17 0.17 82 1013.3
20260506175903 70 136 1.0 2.0 0.00 0.17 0.17 82 1013.3
20260506175404 70 213 1.0 2.0 0.00 0.17 0.17 82 1013.3
20260506174904 70 251 1.0 3.0 0.00 0.17 0.17 82 1013.3
20260506174403 70 233 1.0 3.0 0.00 0.17 0.17 81 1013.4
20260506173904 70 236 1.0 3.0 0.00 0.17 0.17 81 1013.4
20260506173403 70 251 0.0 3.0 0.00 0.17 0.17 82 1013.4
20260506172904 70 253 3.0 6.0 0.00 0.17 0.17 81 1013.0
20260506172405 69 227 2.0 5.0 0.00 0.17 0.17 82 1013.0
20260506171903 69 226 3.0 6.0 0.00 0.17 0.17 82 1013.0
20260506171403 69 203 2.0 7.0 0.00 0.17 0.17 82 1013.0
20260506170904 69 194 4.0 12.0 0.00 0.17 0.17 83 1013.0
20260506170404 68 227 2.0 7.0 0.00 0.17 0.17 83 1013.0
20260506165904 68 242 3.0 6.0 0.00 0.17 0.17 83 1013.1
20260506165405 68 199 2.0 6.0 0.00 0.17 0.17 83 1013.1
20260506164903 68 191 3.0 7.0 0.00 0.17 0.17 83 1013.1
20260506163905 68 215 3.0 9.0 0.00 0.17 0.17 83 1013.1
20260506163404 67 224 4.0 8.0 0.00 0.17 0.17 83 1013.1
20260506162404 67 175 3.0 13.0 0.00 0.17 0.17 84 1013.2
20260506161903 67 177 2.0 8.0 0.00 0.17 0.17 85 1013.2
20260506160905 67 220 3.0 9.0 0.00 0.17 0.17 85 1013.2
20260506160404 67 284 2.0 3.0 0.01 0.17 0.17 85 1013.2
20260506155903 67 110 2.0 6.0 0.03 0.17 0.17 85 1013.4
20260506155404 67 231 2.0 5.0 0.04 0.17 0.17 85 1013.4
20260506154904 66 140 3.0 8.0 0.06 0.17 0.17 85 1013.4
20260506153904 67 239 1.0 5.0 0.09 0.17 0.17 86 1013.4
20260506152903 66 260 2.0 3.0 0.12 0.17 0.17 87 1012.6
20260506152405 66 5 0.0 0.0 0.12 0.17 0.17 86 1013.1
20260506151903 66 5 1.0 3.0 0.13 0.17 0.17 86 1013.1
20260506151403 66 340 0.0 2.0 0.13 0.17 0.17 86 1013.9
20260506150905 65 227 2.0 7.0 0.14 0.17 0.17 85 1013.9
20260506150404 65 235 2.0 12.0 0.13 0.16 0.16 85 1013.6
20260506145903 65 218 3.0 7.0 0.11 0.14 0.14 85 1014.5
20260506145405 65 235 3.0 6.0 0.10 0.13 0.13 84 1014.7
20260506144903 65 159 3.0 7.0 0.08 0.11 0.11 84 1014.7
20260506143904 65 233 1.0 7.0 0.07 0.08 0.08 84 1014.2
20260506143403 65 236 6.0 12.0 0.06 0.07 0.07 84 1014.2
20260506142904 65 250 1.0 3.0 0.04 0.05 0.05 84 1013.8
20260506142406 65 179 1.0 2.0 0.05 0.05 0.05 84 1013.8
20260506141903 65 179 1.0 2.0 0.04 0.04 0.04 84 1013.8
20260506140904 65 257 1.0 3.0 0.03 0.03 0.03 83 1013.5
20260506135905 65 276 1.0 2.0 0.03 0.03 0.03 83 1013.5
20260506134904 65 193 0.0 2.0 0.03 0.03 0.03 82 1013.5
20260506134405 65 269 0.0 1.0 0.03 0.03 0.03 82 1013.4
20260506133903 65 269 0.0 1.0 0.01 0.01 0.01 80 1013.4
20260506133405 65 269 0.0 1.0 0.01 0.01 0.01 80 1013.4
20260506132904 66 269 0.0 3.0 0.01 0.01 0.01 78 1013.2
20260506132404 66 194 1.0 2.0 0.00 0.00 0.00 76 1013.2
20260506131903 66 194 0.0 2.0 0.00 0.00 0.00 76 1013.2
20260506131405 66 185 1.0 3.0 0.00 0.00 0.00 75 1012.8
20260506130903 66 230 0.0 1.0 0.00 0.00 0.00 74 1012.8
20260506130404 66 257 0.0 2.0 0.00 0.00 0.00 73 1012.8
20260506125404 66 156 2.0 5.0 0.00 0.00 0.00 73 1012.8
20260506123904 66 232 4.0 7.0 0.00 0.00 0.00 72 1012.6
20260506123405 66 166 2.0 5.0 0.00 0.00 0.00 72 1012.2
20260506122903 66 236 2.0 3.0 0.00 0.00 0.00 72 1012.2
20260506122404 66 227 2.0 5.0 0.00 0.00 0.00 72 1012.2
20260506121905 66 225 2.0 6.0 0.00 0.00 0.00 72 1012.2
20260506121404 66 232 2.0 5.0 0.00 0.00 0.00 72 1012.3
20260506120903 66 175 3.0 8.0 0.00 0.00 0.00 72 1012.3
20260506115904 66 250 1.0 5.0 0.00 0.00 0.00 72 1012.0
20260506115404 66 227 3.0 5.0 0.00 0.00 0.00 72 1012.0
20260506114904 66 239 2.0 7.0 0.00 0.00 0.00 72 1012.0
20260506114405 66 211 2.0 7.0 0.00 0.00 0.00 72 1012.2
20260506113904 66 214 2.0 5.0 0.00 0.00 0.00 71 1012.2
20260506113404 66 242 2.0 3.0 0.00 0.00 0.00 71 1012.3
20260506112905 66 247 2.0 3.0 0.00 0.00 0.00 71 1012.0
20260506112404 66 263 1.0 3.0 0.00 0.00 0.00 70 1012.0
20260506111904 66 221 3.0 5.0 0.00 0.00 0.00 70 1012.0
20260506111404 66 186 3.0 7.0 0.00 0.00 0.00 70 1011.4
20260506110904 66 240 3.0 7.0 0.00 0.00 0.00 70 1011.4
20260506110404 66 219 3.0 6.0 0.00 0.00 0.00 70 1011.4
20260506105404 67 188 3.0 7.0 0.00 0.00 0.00 69 1011.4
20260506104904 67 237 2.0 3.0 0.00 0.00 0.00 69 1011.4
20260506103905 67 216 2.0 3.0 0.00 0.00 0.00 69 1011.2
20260506103404 67 248 2.0 3.0 0.00 0.00 0.00 69 1011.2
20260506102904 67 200 1.0 3.0 0.00 0.00 0.00 69 1011.4
20260506102405 67 147 1.0 3.0 0.00 0.00 0.00 69 1011.4
20260506101903 67 249 2.0 3.0 0.00 0.00 0.00 69 1011.4
20260506100905 67 167 0.0 2.0 0.00 0.00 0.00 68 1011.7
20260506100404 67 232 1.0 2.0 0.00 0.00 0.00 68 1011.7
20260506095904 67 232 0.0 1.0 0.00 0.00 0.00 68 1011.4
20260506095404 67 232 1.0 2.0 0.00 0.00 0.00 68 1011.4
20260506094904 67 225 1.0 3.0 0.00 0.00 0.00 67 1011.4
20260506094404 67 186 1.0 3.0 0.00 0.00 0.00 67 1010.8
20260506093905 67 265 0.0 3.0 0.00 0.00 0.00 67 1010.8
20260506093404 67 240 1.0 2.0 0.00 0.00 0.00 67 1010.8
20260506092405 67 190 1.0 2.0 0.00 0.00 0.00 66 1010.8
20260506091904 67 230 2.0 3.0 0.00 0.00 0.00 65 1010.8
20260506091404 67 225 1.0 3.0 0.00 0.00 0.00 65 1010.9
20260506090905 67 165 2.0 3.0 0.00 0.00 0.00 65 1010.9
20260506090404 67 211 2.0 3.0 0.00 0.00 0.00 65 1010.9
20260506085904 67 179 2.0 5.0 0.00 0.00 0.00 64 1010.8
20260506085405 67 218 2.0 3.0 0.00 0.00 0.00 64 1010.8
20260506084905 67 238 1.0 2.0 0.00 0.00 0.00 64 1010.8
20260506084404 67 250 2.0 5.0 0.00 0.00 0.00 64 1010.8
20260506083905 67 232 2.0 3.0 0.00 0.00 0.00 64 1010.8
20260506083404 67 243 1.0 3.0 0.00 0.00 0.00 63 1010.8
20260506082904 67 252 1.0 5.0 0.00 0.00 0.00 63 1010.9
20260506082405 67 228 2.0 8.0 0.00 0.00 0.00 62 1010.9
20260506081904 67 206 2.0 6.0 0.00 0.00 0.00 62 1010.9
20260506081404 67 216 2.0 5.0 0.00 0.00 0.00 62 1010.7
20260506080905 67 226 4.0 8.0 0.00 0.00 0.00 61 1010.7
20260506080404 67 234 3.0 7.0 0.00 0.00 0.00 61 1010.7
20260506073404 67 200 3.0 6.0 0.00 0.00 0.00 59 1010.6
20260506072904 67 214 3.0 10.0 0.00 0.00 0.00 59 1010.6
20260506072405 67 214 5.0 10.0 0.00 0.00 0.00 59 1010.6
20260506071904 68 241 3.0 8.0 0.00 0.00 0.00 58 1010.6
20260506071404 68 224 3.0 8.0 0.00 0.00 0.00 58 1010.8
20260506070404 68 193 3.0 5.0 0.00 0.00 0.00 57 1010.8
20260506062402 68 177 1.0 3.0 0.00 0.00 0.00 55 1011.4
20260506061903 68 200 1.0 6.0 0.00 0.00 0.00 54 1011.4
20260506061402 69 136 3.0 6.0 0.00 0.00 0.00 54 1011.4
20260506060902 69 160 3.0 5.0 0.00 0.00 0.00 53 1011.4